Location: Newark
(25.4297°S, 49.2719°W)
Time: 11:56:24
(UTC+00:00)

Vanguard 1 Rocket - Pass Details

Date: 29 November 2019
Orbit: 650 x 4226 km, 34.3° (Epoch: 06 December)

Event Time Altitude Azimuth Distance (km) Brightness Sun altitude
Rises 16:26:56 0° 272° (W) 5,974 11.8 70.9°
Reaches altitude 10° 16:30:13 10° 269° (W) 5,342 11.8 70.2°
Maximum altitude 16:48:29 69° 186° (S) 3,981 11.9 66.1°
Drops below altitude 10° 17:15:18 10° 103° (ESE) 7,322 11.8 60.0°
Sets 17:20:50 0° 100° (E) 8,156 11.9 58.8°
